マセニー彗星

C/2016 T1 ( Matheny )

English version
Home page
Updated on March 3, 2018

---------------------------------------------------------------------

・ プロフィール

発見日 2016年10月6日
発見光度 18.4等
発見者 Rose G. Matheny (Mount Lemmon Survey)

・ 写真集

・ 軌道要素

Epoch 2017 Feb. 16.0 TT = JDT 2457800.5
T 2017 Feb. 1.65500 TT                                  MPCW
q   2.3000180            (2000.0)            P               Q
z  +0.0079197      Peri.  137.34868     -0.04816663     -0.76811681
 +/-0.0000053      Node    56.23057     -0.98921371     -0.05184721
e   0.9817845      Incl.  129.81766     +0.13833370     -0.63820721
From 128 observations 2016 Oct. 6-2017 May 26, mean residual 0".5.

・ 光度変化

        m1 = 11.0 + 5 logΔ + 15.0 log r(t + 80)

        ※ 灰色の曲線は、m1 = 12.5 + 5 logΔ + 10.0 log r の光度曲線です。

---------------------------------------------------------------------

軌道要素はM.P.E.C. 2017-L52に掲載されたものです。
光度グラフはComet for Windowsで作成したものです。

---------------------------------------------------------------------

Copyright(C) Seiichi Yoshida (comet@aerith.net). All rights reserved.